Terug naar catalogus

FENGYUN 1C DEB

ActiefPO
NORAD 30826·DEBRIS·🇨🇳 China

Gelanceerd May 10, 1999 vanaf Taiyuan Satellite Launch Center

Loading…

Volgende Passages (komende 24 uur)

TLE

VersSource: Space-Track

Epoch: Sep 14, 2026, 10:25 UTC

1 30826U 99025AVL 26257.43447032  .00002453  00000-0  25165-3 0  9999
2 30826  98.8385 127.5302 0138640 199.5673 288.3691 14.84704608 43741

Volg FENGYUN 1C DEB in realtime met AllMySat

Download on the App Store